Regional Weather Roundup
Issued by NWS

Home | Current Version | Previous Version | Text Only | Print | Product List | Glossary On
Versions: 1 2 3 4 5 6 7 8 9 10 11 12 13 14 15 16 17 18 19 20 21 22 23 24 25 26 27 28 29 30 31 32 33 34 35 36 37 38 39 40 41 42 43 44 45 46 47 48 49 50
000
ASUS45 KABQ 301310
RWRNM
WEATHER ROUNDUP FOR NEW MEXICO
NATIONAL WEATHER SERVICE ALBUQUERQUE NM
700 AM MDT WED JUL 30 2014

NOTE: "FAIR" MEANS FEW OR NO CLOUDS BELOW 12,000 FEET AGL WITH NO
       SIGNIFICANT WEATHER OR OBSTRUCTIONS TO VISION.

      THIS PRODUCT IS RELEASED AS TWO VERSIONS.  ONE VERSION NEAR
      THE TOP OF THE HOUR CONTAINING PRELIMINARY DATA FROM ALBUQUERQUE
      AND OTHER STATIONS.  A FINAL VERSION WITH ADDITIONAL DATA IS
      ISSUED ABOUT 10 MINUTES AFTER THE HOUR.

NMZ501-503-504-510>518-301400-
NORTHWEST PLATEAU/NORTHCENTRAL MOUNTAINS

CITY           SKY/WX    TMP DP  RH WIND       PRES   REMARKS
FARMINGTON     MOCLDY    61  52  72 NE5       30.20S
LOS ALAMOS     PTCLDY    61  53  74 NW7       30.32S
SANTA FE       PTCLDY    60  56  86 W7G17     30.26
TAOS           CLOUDY    55  52  88 CALM      30.33S
ANGEL FIRE     FOG       48  47  97 NE7       30.40R VSB<1/4

$$
NMZ402-403-502-505>509-301400-
WESTCENTRAL MOUNTAINS/SOUTHWEST MOUNTAINS

CITY           SKY/WX    TMP DP  RH WIND       PRES   REMARKS
GALLUP         CLEAR     57  53  86 CALM      30.28S
SILVER CITY    PTCLDY    64  57  77 N12       30.23R

$$
NMZ407-409-411-412-301400-
SOUTHERN DESERTS

CITY           SKY/WX    TMP DP  RH WIND       PRES   REMARKS
LORDSBURG      FAIR      64  54  68 CALM      30.14R
DEMING         MOCLDY    68  60  75 W5        30.13R
LAS CRUCES     MOCLDY    69  59  70 CALM      30.14S
HOLLOMAN AFB   PTCLDY    70  64  83 CALM      30.10R
ALAMOGORDO     CLEAR     68  63  83 CALM      30.12R
T OR C         PTCLDY    69  56  62 CALM      30.16R

$$
NMZ519>523-301400-
CENTRAL VALLEYS/CENTRAL HIGHLANDS

CITY           SKY/WX    TMP DP  RH WIND       PRES   REMARKS
ALBUQUERQUE    PTCLDY    67  59  75 N3        30.22R
DOUBLE EAGLE   PTCLDY    63  59  88 W7        30.24R
MORIARTY ARPT  PTSUNNY   59  56  89 CALM      30.26R
CLINES CORNERS MOCLDY    58  54  86 NW9       30.28S
BELEN          FAIR      64  62  94 W3        30.21R
SOCORRO        FAIR      65  61  85 N7        30.18S

$$
NMZ524>526-539-540-301400-
SOUTHCENTRAL MOUNTAINS

CITY           SKY/WX    TMP DP  RH WIND       PRES   REMARKS
RUIDOSO        CLEAR     64  54  68 W3        30.31S

$$
NMZ527>531-301400-
NORTHEAST HIGHLANDS/NORTHEAST PLAINS

CITY           SKY/WX    TMP DP  RH WIND       PRES   REMARKS
LAS VEGAS      PTCLDY    57  52  83 NE9       30.28R
RATON          SUNNY     61  55  81 N16       30.24R
CLAYTON        PTSUNNY   65  59  81 NW12      30.17R

$$
NMZ532>537-301400-
EASTCENTRAL PLAINS

CITY           SKY/WX    TMP DP  RH WIND       PRES   REMARKS
TUCUMCARI      SUNNY     68  65  90 NE3       30.10R
CANNON AFB     SUNNY     66  63  88 S3        30.11S
CLOVIS AIRPORT NOT AVBL

$$
NMZ028-029-538-301400-
SOUTHEAST PLAINS

CITY           SKY/WX    TMP DP  RH WIND       PRES   REMARKS
ROSWELL        PTCLDY    70  67  90 NW3       30.07R
ARTESIA        PTCLDY    68  63  83 NW6       30.06S
CARLSBAD       PTCLDY    76  49  38 CALM      30.03R
HOBBS          PTCLDY    70  50  49 S5        30.08S


$$


USA.gov is the U.S. government's official web portal to all federal, state and local government web resources and services.